Wind_Speed
23 25 34 35 33 31 31 25 26 25 17 14 33 27 29 29 32 28 24 24 18 10 16 21 23 27 25 21 18 18 17 14 14 13 11 11 10 10 10 7 11 10 11 11
27 36 32 28 30 30 32 30 33 30 21 19 32 28 30 34 33 31 26 26 23 16 19 20 22 24 23 20 19 19 18 17 14 13 13 13 12 12 13 13 13 14 12 9
34 23 31 30 31 28 34 37 37 31 17 17 31 32 37 39 38 32 30 29 26 25 17 17 26 27 24 23 21 18 18 18 16 15 16 16 16 14 13 12 11 10 9 7
34 32 17 31 33 32 35 42 41 34 26 22 19 11 33 39 42 38 34 37 33 32 26 21 15 26 30 27 23 23 21 20 18 18 18 16 15 13 11 11 7 7 8 5
30 31 35 32 32 37 40 32 35 33 33 32 32 20 26 28 49 46 44 45 36 35 33 23 15 14 15 21 25 24 23 22 22 21 19 16 16 14 13 13 10 9 7 10
33 24 24 33 29 28 30 32 32 32 34 24 39 32 32 39 35 40 45 46 37 35 35 30 17 15 16 16 18 18 18 25 25 24 21 17 15 15 13 12 10 9 12 14
35 37 33 29 31 28 30 34 20 14 16 12 34 27 33 24 33 38 37 38 38 33 31 34 26 21 21 21 18 19 20 20 26 27 24 19 15 16 13 13 11 12 14 13
36 29 39 33 41 36 38 40 25 9 4 6 31 17 42 37 33 31 36 40 41 35 26 29 29 20 21 20 17 14 16 19 20 27 26 22 18 18 15 14 12 14 15 16
16 38 33 41 37 40 41 42 34 38 31 13 18 25 40 34 35 36 35 44 43 38 30 20 24 25 25 25 21 16 14 15 17 21 27 26 21 21 18 16 16 17 19 19
47 26 23 33 34 41 36 35 29 29 14 16 13 21 36 32 35 29 34 39 44 44 36 27 27 30 31 25 24 19 16 16 14 15 23 25 22 22 21 19 18 19 20 19
44 44 39 29 36 43 46 46 35 37 35 11 4 32 42 39 33 25 25 39 43 49 43 38 32 32 30 25 25 25 21 20 22 20 19 21 23 26 25 20 19 21 22 21
43 41 43 50 41 32 47 43 41 31 22 33 41 50 23 23 29 28 35 32 43 49 46 39 28 32 36 25 25 24 24 23 24 22 20 19 24 29 27 23 20 24 22 20
12 30 32 35 42 47 42 42 52 50 36 39 19 23 42 40 32 27 15 25 42 52 41 47 40 35 37 30 26 22 23 22 22 25 25 22 25 28 29 26 22 23 23 21
29 34 36 34 43 37 36 51 36 52 43 38 57 39 32 27 38 35 32 29 28 36 39 30 48 37 37 37 24 21 23 21 21 25 29 26 23 27 28 27 26 24 22 20
18 30 30 41 40 48 47 42 48 47 57 51 51 41 45 42 36 23 14 23 32 30 40 24 27 42 41 40 29 20 21 24 21 24 27 29 25 27 31 31 29 27 27 26
17 17 18 31 34 45 52 48 45 38 52 56 49 46 39 36 25 44 30 16 35 28 42 37 34 38 37 46 35 26 24 23 23 21 28 27 28 30 34 32 31 31 29 28
18 11 18 16 27 38 41 58 45 47 40 51 48 46 36 36 33 27 32 20 32 43 26 36 34 28 38 41 36 29 22 25 26 23 24 26 32 32 35 34 33 32 31 30
22 17 16 19 15 21 43 48 48 45 34 22 39 43 35 35 30 28 32 29 24 39 39 36 30 27 29 31 40 27 25 25 26 25 28 27 28 34 36 35 34 33 32 31
29 19 13 8 15 14 28 31 45 42 44 40 35 20 46 33 33 36 32 35 24 25 30 26 24 24 32 35 31 29 30 27 26 27 27 31 29 34 38 39 37 36 34 33
23 25 26 20 6 6 28 23 36 20 14 29 32 28 18 38 33 33 36 35 36 32 29 37 26 33 34 32 36 40 38 32 32 31 25 26 37 33 35 39 40 38 37 35
9 15 28 26 17 15 10 29 27 23 14 20 19 23 23 27 29 29 26 25 33 31 32 32 37 32 42 42 37 34 35 38 32 30 28 28 27 41 34 32 37 39 38 37
18 13 16 12 19 10 7 20 33 26 17 18 20 22 25 27 26 26 25 23 23 24 21 27 35 40 37 42 46 48 44 39 30 31 34 31 31 33 37 36 36 38 39 37
22 20 25 17 12 15 13 2 17 25 26 20 20 15 17 20 22 27 28 27 29 30 30 32 31 29 39 40 48 50 46 42 38 35 35 32 33 32 40 41 41 40 38 35
27 32 14 39 15 15 5 10 18 20 22 25 25 18 16 16 17 19 20 22 25 29 35 33 34 36 37 42 49 51 49 49 48 40 36 34 35 35 40 45 43 41 38 34
28 39 32 28 26 13 12 13 15 15 16 19 20 21 18 19 13 13 15 15 18 21 26 32 33 35 40 43 45 47 51 52 51 46 40 34 34 31 34 48 47 41 38 34
29 38 42 22 17 5 12 12 13 15 17 16 15 16 16 16 15 14 16 19 20 23 26 28 29 31 32 38 45 49 48 46 42 39 43 34 33 35 38 44 39 39 31 27
Wind_Direction
195 208 211 208 205 216 225 230 235 215 243 283 211 202 197 204 205 218 233 229 228 242 211 217 212 217 225 225 215 205 208 210 214 227 238 244 247 245 253 251 240 238 251 266
202 221 217 218 213 216 219 226 229 237 241 279 212 211 205 202 211 221 233 233 241 236 217 215 223 222 226 224 217 218 216 220 224 226 231 237 241 235 238 246 252 252 256 241
212 218 212 216 214 216 223 224 234 242 251 277 209 193 192 200 211 217 231 253 249 245 250 227 222 226 228 223 223 226 224 224 226 228 230 227 233 235 243 255 275 247 236 246
223 212 210 219 221 214 231 220 234 249 261 272 217 220 206 211 210 212 232 240 242 239 246 258 241 231 230 229 224 230 230 229 231 231 232 234 240 243 244 249 253 247 216 173
216 219 213 226 222 215 229 230 239 250 255 257 249 246 252 233 223 228 239 234 238 241 239 252 263 259 243 236 235 233 236 234 231 232 232 235 238 240 239 246 249 250 200 169
240 224 225 224 224 224 230 234 239 253 253 248 250 251 236 228 233 229 219 227 234 235 234 244 259 267 269 252 236 230 232 236 234 233 231 235 236 233 238 238 241 230 188 174
233 237 235 231 230 228 228 230 234 249 234 238 251 239 231 252 231 222 225 227 231 225 233 239 243 248 253 246 232 229 232 237 232 233 234 229 227 226 225 227 225 212 193 182
225 237 227 221 227 225 227 229 216 213 215 257 249 230 237 244 246 243 235 232 231 221 223 231 243 243 237 240 225 215 220 233 236 231 234 229 221 218 219 222 215 205 189 179
222 235 241 231 224 227 228 229 239 236 245 272 257 253 257 250 245 245 243 230 230 220 215 240 248 242 231 235 223 202 206 218 231 233 231 229 218 211 211 217 201 197 192 183
231 252 243 236 226 226 231 232 226 220 222 238 248 248 242 244 246 244 251 240 235 217 218 238 237 234 233 231 230 221 204 207 213 231 234 230 219 206 209 213 201 195 193 192
226 233 248 243 232 222 225 233 230 233 229 229 240 252 244 240 243 256 268 252 236 222 220 224 237 222 227 230 231 228 217 206 208 216 228 229 217 201 207 206 204 196 194 196
226 233 234 239 233 232 228 233 232 221 215 230 233 248 246 245 253 269 269 260 234 226 225 221 224 221 221 218 218 220 219 209 213 216 222 227 214 204 206 203 203 196 196 197
202 233 233 239 240 236 231 225 228 233 234 229 223 252 252 247 243 255 279 244 225 222 222 226 235 225 221 219 221 221 218 214 213 218 218 221 218 212 209 209 208 208 207 212
242 250 240 234 228 227 230 230 234 229 223 229 236 239 239 244 249 257 258 262 247 243 223 230 235 232 230 223 220 214 219 217 217 219 221 217 221 217 210 213 215 215 218 223
267 259 260 253 243 229 228 231 227 232 226 222 236 241 246 245 249 243 232 250 251 217 216 248 239 230 228 224 221 220 219 223 218 220 225 219 217 216 215 221 222 223 225 231
253 292 281 266 242 231 228 228 226 233 232 231 234 242 249 248 257 241 246 260 222 229 221 240 240 226 229 225 222 216 231 224 213 221 225 224 216 217 212 217 223 229 231 235
298 324 320 285 237 224 230 228 225 232 233 235 231 237 248 238 244 233 237 239 237 231 238 217 231 234 224 223 220 221 227 231 220 221 227 226 221 221 216 216 218 224 231 240
269 296 294 288 288 208 217 232 231 232 232 231 244 239 243 243 240 245 240 251 252 218 229 223 231 230 229 224 219 231 228 227 225 227 227 228 228 226 222 220 222 226 228 233
243 265 256 258 295 216 215 230 224 225 240 242 247 251 236 239 237 238 237 236 234 229 217 207 234 232 231 215 228 224 227 226 231 236 234 229 230 228 226 223 225 229 234 238
235 234 231 252 301 255 213 155 193 188 205 224 235 245 239 227 226 234 235 227 235 241 231 235 246 234 218 231 223 225 230 224 229 233 240 244 230 231 229 228 230 235 240 241
207 184 212 248 264 270 204 217 201 188 200 207 213 220 216 209 210 216 223 224 228 233 232 230 221 232 217 223 220 229 235 244 243 245 254 251 251 229 231 235 233 234 238 241
202 165 174 215 272 247 180 204 209 199 204 210 212 212 213 211 211 214 211 204 213 222 221 223 223 233 228 231 231 237 232 237 248 249 245 248 253 241 230 235 237 236 238 240
189 197 184 205 229 345 17 308 211 210 212 208 204 206 209 216 220 225 228 235 241 237 237 241 242 242 235 232 235 240 236 241 241 240 240 242 250 240 228 232 235 237 239 243
193 186 185 206 220 335 300 144 167 183 210 211 220 228 228 228 232 238 242 245 249 250 256 268 263 247 241 235 229 231 239 242 242 239 230 238 245 250 230 229 236 239 242 236
183 190 199 211 225 294 224 197 170 171 181 193 200 217 230 236 241 261 270 269 272 273 270 264 263 263 254 248 243 241 237 235 233 232 236 237 248 245 244 236 238 239 234 233
178 189 199 207 252 278 216 187 167 179 185 186 191 203 223 244 254 259 273 283 281 278 277 269 265 254 254 249 238 239 228 220 218 218 233 246 247 247 242 242 237 230 233 234
Height
3125 3127 3124 3132 3138 3143 3146 3148 3147 3146 3151 3155 3152 3152 3153 3154 3161 3164 3166 3167 3170 3173 3174 3176 3178 3182 3184 3186 3190 3193 3196 3198 3199 3200 3201 3203 3205 3206 3207 3208 3209 3210 3210 3211
3121 3115 3124 3131 3135 3139 3142 3144 3141 3143 3148 3153 3150 3150 3150 3150 3152 3157 3161 3164 3167 3171 3172 3173 3174 3178 3180 3183 3186 3189 3192 3194 3197 3199 3200 3201 3203 3204 3205 3206 3207 3207 3206 3208
3110 3114 3120 3125 3130 3133 3136 3138 3136 3143 3146 3148 3148 3148 3150 3153 3155 3157 3158 3160 3163 3165 3168 3170 3171 3172 3175 3178 3182 3186 3189 3192 3194 3196 3198 3200 3200 3201 3202 3204 3204 3204 3204 3205
3107 3112 3115 3119 3122 3129 3129 3133 3136 3141 3145 3145 3147 3146 3147 3150 3152 3152 3153 3156 3158 3161 3163 3166 3167 3168 3170 3173 3179 3181 3185 3188 3189 3192 3194 3196 3198 3199 3200 3200 3201 3202 3202 3203
3095 3101 3107 3111 3114 3122 3120 3132 3134 3138 3140 3143 3143 3144 3139 3145 3145 3148 3150 3151 3153 3156 3160 3162 3163 3164 3166 3169 3173 3177 3179 3182 3185 3188 3190 3192 3194 3196 3197 3197 3198 3199 3200 3202
3094 3101 3104 3106 3113 3117 3125 3129 3131 3133 3135 3130 3131 3135 3129 3131 3135 3140 3144 3145 3147 3151 3154 3158 3161 3162 3164 3166 3169 3173 3175 3177 3181 3183 3186 3188 3190 3192 3193 3194 3195 3197 3199 3201
3090 3092 3098 3104 3108 3113 3117 3122 3124 3125 3121 3116 3124 3126 3120 3122 3126 3130 3134 3137 3140 3145 3148 3152 3155 3157 3160 3161 3163 3167 3170 3173 3175 3178 3181 3183 3186 3188 3190 3191 3193 3195 3197 3199
3085 3085 3088 3092 3096 3102 3106 3111 3112 3120 3117 3113 3117 3111 3109 3118 3121 3123 3126 3130 3134 3140 3142 3146 3148 3152 3154 3157 3159 3162 3165 3169 3171 3173 3176 3179 3181 3184 3186 3188 3190 3192 3195 3197
3076 3075 3082 3086 3090 3096 3098 3099 3109 3109 3109 3110 3102 3104 3106 3112 3114 3116 3119 3124 3128 3133 3137 3139 3141 3145 3149 3151 3154 3157 3160 3164 3167 3169 3172 3174 3177 3179 3183 3185 3187 3189 3192 3195
3069 3069 3071 3077 3084 3086 3088 3099 3100 3096 3101 3104 3095 3096 3092 3101 3105 3111 3112 3115 3116 3123 3128 3131 3135 3139 3143 3146 3149 3154 3156 3159 3163 3165 3167 3169 3173 3176 3179 3182 3184 3186 3190 3192
3063 3065 3063 3069 3067 3072 3079 3081 3084 3088 3090 3091 3096 3076 3086 3094 3100 3103 3104 3104 3107 3111 3118 3124 3128 3133 3137 3141 3144 3148 3151 3154 3157 3160 3163 3165 3168 3172 3175 3178 3181 3183 3185 3188
3053 3054 3049 3051 3057 3063 3069 3072 3077 3078 3079 3078 3078 3051 3081 3089 3096 3097 3097 3099 3102 3104 3110 3120 3124 3128 3133 3135 3139 3143 3145 3149 3153 3157 3159 3161 3163 3167 3171 3174 3177 3180 3182 3184
3042 3037 3043 3040 3047 3050 3054 3058 3062 3067 3072 3068 3067 3063 3077 3085 3090 3090 3091 3092 3098 3103 3110 3115 3119 3123 3127 3130 3133 3138 3140 3143 3148 3152 3154 3156 3159 3162 3167 3171 3173 3175 3178 3179
3036 3030 3028 3023 3028 3041 3043 3047 3052 3056 3058 3060 3045 3063 3071 3078 3083 3087 3090 3093 3097 3100 3108 3111 3114 3117 3121 3125 3128 3132 3135 3138 3142 3146 3149 3151 3154 3158 3163 3167 3168 3170 3172 3174
3026 3018 3022 3018 3025 3030 3031 3038 3043 3040 3043 3042 3046 3054 3065 3073 3077 3080 3084 3087 3089 3091 3099 3103 3106 3109 3113 3117 3122 3126 3130 3133 3135 3138 3142 3145 3149 3153 3157 3160 3162 3165 3166 3168
3022 3014 3014 3007 3014 3019 3020 3028 3030 3030 3037 3039 3043 3048 3058 3065 3068 3071 3075 3080 3083 3085 3088 3095 3098 3101 3105 3110 3115 3119 3123 3127 3129 3132 3136 3139 3143 3145 3148 3153 3155 3158 3161 3163
3015 3015 3012 3002 3007 3011 3017 3002 3018 3024 3029 3033 3034 3045 3052 3055 3058 3061 3067 3071 3076 3078 3079 3084 3089 3092 3097 3102 3109 3112 3116 3120 3123 3126 3130 3132 3136 3138 3142 3146 3148 3151 3153 3156
3009 3013 3014 3004 3001 2999 2987 3003 3012 3020 3025 3029 3032 3039 3043 3046 3053 3057 3062 3065 3067 3071 3074 3078 3082 3086 3091 3096 3101 3106 3109 3112 3116 3119 3122 3126 3129 3132 3136 3139 3141 3144 3147 3149
3004 3009 3009 3007 2998 2990 2991 2993 3004 3010 3015 3023 3026 3029 3034 3040 3046 3050 3053 3058 3062 3067 3070 3072 3077 3081 3085 3089 3095 3099 3102 3105 3109 3111 3115 3117 3121 3124 3127 3131 3134 3137 3139 3142
2993 2999 3004 3003 3004 2991 2988 2993 2997 3007 3010 3015 3020 3022 3026 3031 3037 3040 3044 3050 3054 3059 3062 3065 3068 3073 3079 3082 3087 3090 3093 3096 3099 3103 3106 3109 3111 3115 3119 3123 3126 3129 3132 3134
2982 2988 2995 2998 3002 2990 2987 2992 2993 2998 3009 3009 3014 3018 3021 3026 3031 3033 3037 3042 3046 3050 3055 3060 3065 3067 3071 3074 3079 3081 3086 3087 3092 3096 3099 3100 3101 3104 3110 3114 3117 3119 3122 3124
2975 2980 2988 2997 2996 2984 2976 2984 2989 2991 3000 3004 3009 3014 3017 3022 3026 3030 3033 3037 3041 3044 3048 3053 3057 3060 3065 3067 3069 3072 3074 3080 3083 3086 3087 3090 3092 3094 3098 3102 3106 3108 3110 3112
2968 2974 2978 2987 2985 2980 2979 2982 2983 2987 2993 2999 3005 3010 3014 3017 3020 3025 3029 3032 3035 3040 3043 3045 3049 3052 3054 3056 3057 3059 3063 3068 3072 3075 3077 3080 3081 3082 3085 3089 3092 3095 3097 3100
2959 2968 2972 2977 2979 2976 2976 2978 2982 2985 2989 2995 3001 3005 3010 3013 3015 3019 3023 3025 3029 3031 3033 3034 3037 3040 3042 3042 3043 3046 3051 3055 3058 3062 3064 3067 3069 3071 3073 3075 3079 3081 3084 3088
2952 2960 2965 2973 2975 2978 2977 2977 2977 2980 2986 2992 2996 3000 3006 3009 3012 3016 3018 3019 3022 3024 3025 3025 3025 3026 3028 3030 3033 3033 3036 3039 3041 3047 3052 3055 3057 3058 3060 3063 3065 3070 3075 3079
2948 2954 2961 2968 2974 2976 2974 2973 2973 2978 2984 2989 2992 2996 3002 3006 3008 3010 3013 3015 3015 3016 3016 3016 3017 3016 3018 3018 3017 3020 3018 3023 3030 3031 3038 3044 3047 3048 3048 3050 3057 3063 3067 3053